When you browse on this site, cookies collect data to enhance your experience and personalize the content and advertising you see.
Visit our Privacy Policy to learn more. By continuing to use the site, you agree to this use of cookies and data.
  • In Czech Republic
  • List of Countries
  • For 7 days
  • Water Temperature
  • Weather Map
  • Weather Widgets
  • user-avatar
    Login

    Hourly Weather Coihueco

    Today, 28 March, Saturday

    Time Temperature Precipitation Wind Pressure Humidity
    00:00 +13°C° 0 mm 1 mps 737 mmHg 82%
    01:00 +13°C° 0 mm 1 mps 737 mmHg 87%
    02:00 +12°C° 0 mm 1 mps 737 mmHg 87%
    03:00 +12°C° 0 mm 1 mps 737 mmHg 87%
    04:00 +12°C° 0 mm 1 mps 737 mmHg 88%
    05:00 +12°C° 0 mm 0 mps 737 mmHg 84%
    06:00 +12°C° 0 mm 0 mps 738 mmHg 81%
    07:00 +13°C° 0 mm 0 mps 738 mmHg 78%
    08:00 +18°C° 0 mm 1 mps 738 mmHg 67%
    09:00 +21°C° 0 mm 1 mps 738 mmHg 56%
    10:00 +24°C° 0 mm 2 mps 738 mmHg 45%
    11:00 +25°C° 0 mm 2 mps 738 mmHg 40%
    12:00 +26°C° 0 mm 2 mps 738 mmHg 35%
    13:00 +28°C° 0 mm 2 mps 738 mmHg 30%
    14:00 +27°C° 0 mm 2 mps 738 mmHg 29%
    15:00 +27°C° 0 mm 3 mps 738 mmHg 29%
    16:00 +26°C° 0 mm 3 mps 739 mmHg 28%
    17:00 +24°C° 0 mm 3 mps 739 mmHg 34%
    18:00 +21°C° 0 mm 3 mps 739 mmHg 41%
    19:00 +19°C° 0 mm 2 mps 740 mmHg 47%
    20:00 +18°C° 0 mm 2 mps 740 mmHg 51%
    21:00 +17°C° 0 mm 2 mps 740 mmHg 54%
    22:00 +16°C° 0 mm 2 mps 740 mmHg 58%
    23:00 +15°C° 0 mm 2 mps 740 mmHg 61%

    Tomorrow, 29 March, Sunday

    Time Temperature Precipitation Wind Pressure Humidity
    00:00 +14°C° 0 mm 2 mps 740 mmHg 64%
    01:00 +14°C° 0 mm 2 mps 740 mmHg 67%
    02:00 +13°C° 0 mm 2 mps 739 mmHg 69%
    03:00 +13°C° 0 mm 2 mps 739 mmHg 72%
    04:00 +12°C° 0 mm 2 mps 739 mmHg 74%
    05:00 +12°C° 0 mm 1 mps 740 mmHg 72%
    06:00 +13°C° 0 mm 1 mps 740 mmHg 69%
    07:00 +13°C° 0 mm 1 mps 740 mmHg 67%
    08:00 +17°C° 0 mm 2 mps 740 mmHg 57%
    09:00 +20°C° 0 mm 2 mps 740 mmHg 46%
    10:00 +24°C° 0 mm 3 mps 740 mmHg 36%
    11:00 +25°C° 0 mm 3 mps 740 mmHg 32%
    12:00 +27°C° 0 mm 3 mps 740 mmHg 28%
    13:00 +28°C° 0 mm 4 mps 740 mmHg 24%
    14:00 +28°C° 0 mm 4 mps 740 mmHg 24%
    15:00 +27°C° 0 mm 3 mps 739 mmHg 23%
    16:00 +27°C° 0 mm 3 mps 739 mmHg 23%
    17:00 +24°C° 0 mm 3 mps 740 mmHg 29%
    18:00 +21°C° 0 mm 3 mps 740 mmHg 35%
    19:00 +18°C° 0 mm 3 mps 740 mmHg 41%
    20:00 +17°C° 0 mm 3 mps 740 mmHg 44%
    21:00 +14°C° 0 mm 3 mps 740 mmHg 48%
    22:00 +13°C° 0 mm 3 mps 740 mmHg 51%
    23:00 +13°C° 0 mm 3 mps 740 mmHg 53%

    Day after tomorrow, 30 March, Monday

    Time Temperature Precipitation Wind Pressure Humidity
    00:00 +12°C° 0 mm 3 mps 740 mmHg 56%
    01:00 +11°C° 0 mm 3 mps 739 mmHg 58%
    02:00 +12°C° 0 mm 2 mps 739 mmHg 59%
    03:00 +10°C° 0 mm 2 mps 739 mmHg 61%
    04:00 +10°C° 0 mm 2 mps 739 mmHg 62%
    05:00 +10°C° 0 mm 2 mps 740 mmHg 61%
    06:00 +12°C° 0 mm 2 mps 740 mmHg 60%
    07:00 +12°C° 0 mm 2 mps 740 mmHg 59%
    08:00 +15°C° 0 mm 2 mps 740 mmHg 49%
    09:00 +19°C° 0 mm 2 mps 740 mmHg 39%
    10:00 +23°C° 0 mm 2 mps 739 mmHg 29%
    11:00 +25°C° 0 mm 3 mps 739 mmHg 26%
    12:00 +27°C° 0 mm 3 mps 739 mmHg 22%
    13:00 +28°C° 0 mm 3 mps 739 mmHg 19%
    14:00 +28°C° 0 mm 3 mps 738 mmHg 18%
    15:00 +28°C° 0 mm 3 mps 738 mmHg 18%
    16:00 +28°C° 0 mm 3 mps 738 mmHg 17%
    17:00 +25°C° 0 mm 3 mps 738 mmHg 24%
    18:00 +20°C° 0 mm 2 mps 739 mmHg 31%
    19:00 +17°C° 0 mm 2 mps 739 mmHg 37%
    20:00 +16°C° 0 mm 2 mps 739 mmHg 40%
    21:00 +15°C° 0 mm 2 mps 739 mmHg 43%
    22:00 +14°C° 0 mm 2 mps 739 mmHg 46%
    23:00 +14°C° 0 mm 2 mps 738 mmHg 50%

    31 March, Tuesday

    Time Temperature Precipitation Wind Pressure Humidity
    00:00 +13°C° 0 mm 2 mps 738 mmHg 53%
    01:00 +12°C° 0 mm 2 mps 738 mmHg 56%
    02:00 +12°C° 0 mm 2 mps 738 mmHg 62%
    03:00 +10°C° 0 mm 2 mps 738 mmHg 67%
    04:00 +10°C° 0 mm 2 mps 738 mmHg 73%
    05:00 +10°C° 0 mm 2 mps 738 mmHg 71%
    06:00 +12°C° 0 mm 2 mps 738 mmHg 69%
    07:00 +12°C° 0 mm 2 mps 739 mmHg 67%
    08:00 +16°C° 0 mm 2 mps 738 mmHg 57%
    09:00 +19°C° 0 mm 2 mps 738 mmHg 46%
    10:00 +22°C° 0 mm 3 mps 738 mmHg 36%
    11:00 +25°C° 0 mm 3 mps 738 mmHg 32%
    12:00 +26°C° 0 mm 3 mps 738 mmHg 29%
    13:00 +28°C° 0 mm 3 mps 738 mmHg 25%
    14:00 +28°C° 0 mm 3 mps 738 mmHg 25%
    15:00 +28°C° 0 mm 4 mps 738 mmHg 25%
    16:00 +27°C° 0 mm 4 mps 738 mmHg 25%
    17:00 +24°C° 0 mm 3 mps 738 mmHg 33%
    18:00 +20°C° 0 mm 3 mps 739 mmHg 41%
    19:00 +17°C° 0 mm 3 mps 739 mmHg 50%
    20:00 +16°C° 0 mm 3 mps 739 mmHg 54%
    21:00 +14°C° 0 mm 3 mps 739 mmHg 58%
    22:00 +13°C° 0 mm 3 mps 740 mmHg 62%
    23:00 +12°C° 0 mm 3 mps 740 mmHg 64%

    1 April, Wednesday

    Time Temperature Precipitation Wind Pressure Humidity
    00:00 +11°C° 0 mm 3 mps 740 mmHg 65%
    01:00 +11°C° 0 mm 3 mps 740 mmHg 67%
    02:00 +10°C° 0 mm 3 mps 740 mmHg 67%
    03:00 +10°C° 0 mm 3 mps 740 mmHg 66%
    04:00 +9°C° 0 mm 3 mps 740 mmHg 66%
    05:00 +10°C° 0 mm 3 mps 740 mmHg 62%
    06:00 +10°C° 0 mm 3 mps 741 mmHg 58%
    07:00 +11°C° 0 mm 3 mps 741 mmHg 54%
    08:00 +14°C° 0 mm 3 mps 741 mmHg 45%
    09:00 +18°C° 0 mm 4 mps 741 mmHg 35%
    10:00 +22°C° 0 mm 4 mps 741 mmHg 26%
    11:00 +23°C° 0 mm 5 mps 741 mmHg 23%
    12:00 +26°C° 0 mm 5 mps 741 mmHg 20%
    13:00 +27°C° 0 mm 6 mps 741 mmHg 17%
    14:00 +27°C° 0 mm 6 mps 741 mmHg 18%
    15:00 +27°C° 0 mm 6 mps 741 mmHg 19%
    16:00 +27°C° 0 mm 6 mps 741 mmHg 20%
    17:00 +23°C° 0 mm 5 mps 741 mmHg 26%
    18:00 +21°C° 0 mm 4 mps 741 mmHg 32%
    19:00 +18°C° 0 mm 4 mps 742 mmHg 38%
    20:00 +17°C° 0 mm 4 mps 742 mmHg 40%
    21:00 +15°C° 0 mm 4 mps 742 mmHg 42%
    22:00 +14°C° 0 mm 3 mps 742 mmHg 44%
    23:00 +14°C° 0 mm 3 mps 742 mmHg 44%

    2 April, Thursday

    Time Temperature Precipitation Wind Pressure Humidity
    00:00 +13°C° 0 mm 3 mps 742 mmHg 43%
    01:00 +13°C° 0 mm 3 mps 742 mmHg 43%
    02:00 +13°C° 0 mm 3 mps 742 mmHg 44%
    03:00 +12°C° 0 mm 3 mps 742 mmHg 45%
    04:00 +12°C° 0 mm 3 mps 741 mmHg 47%
    05:00 +12°C° 0 mm 3 mps 741 mmHg 44%
    06:00 +13°C° 0 mm 3 mps 741 mmHg 42%
    07:00 +13°C° 0 mm 3 mps 741 mmHg 40%
    08:00 +18°C° 0 mm 3 mps 741 mmHg 33%
    09:00 +22°C° 0 mm 3 mps 741 mmHg 25%
    10:00 +27°C° 0 mm 3 mps 740 mmHg 18%
    11:00 +29°C° 0 mm 3 mps 740 mmHg 16%
    12:00 +32°C° 0 mm 4 mps 740 mmHg 14%
    13:00 +34°C° 0 mm 4 mps 739 mmHg 12%
    14:00 +34°C° 0 mm 4 mps 739 mmHg 12%
    15:00 +33°C° 0 mm 5 mps 739 mmHg 13%
    16:00 +33°C° 0 mm 5 mps 738 mmHg 13%
    17:00 +29°C° 0 mm 4 mps 739 mmHg 17%
    18:00 +26°C° 0 mm 4 mps 739 mmHg 22%
    19:00 +22°C° 0 mm 3 mps 739 mmHg 26%
    20:00 +21°C° 0 mm 3 mps 739 mmHg 27%
    21:00 +19°C° 0 mm 3 mps 740 mmHg 29%
    22:00 +18°C° 0 mm 3 mps 740 mmHg 30%
    23:00 +17°C° 0 mm 3 mps 740 mmHg 32%
    Show more